| time (UTC) | temp C | wind direction | speed KPH | gust KPH | rain 1hr cm | rain 24hr cm | rain mn cm | humidity % | barometer mb |
| 20260902220528 | 25 | 306 | 9.7 | 19.3 | 0.00 | 0.00 | 0.00 | 23 | 1025.2 |
| 20260902215518 | 25 | 296 | 12.9 | 20.9 | 0.00 | 0.00 | 0.00 | 23 | 1025.3 |
| 20260902214517 | 24 | 304 | 8.0 | 14.5 | 0.00 | 0.00 | 0.00 | 24 | 1025.4 |
| 20260902213517 | 25 | 298 | 8.0 | 14.5 | 0.00 | 0.00 | 0.00 | 24 | 1025.5 |
| 20260902212517 | 24 | 268 | 11.3 | 25.7 | 0.00 | 0.00 | 0.00 | 24 | 1025.6 |
| 20260902211523 | 24 | 216 | 9.7 | 19.3 | 0.00 | 0.00 | 0.00 | 24 | 1025.7 |
| 20260902210518 | 24 | 249 | 9.7 | 19.3 | 0.00 | 0.00 | 0.00 | 24 | 1025.9 |
| 20260902205518 | 24 | 283 | 6.4 | 20.9 | 0.00 | 0.00 | 0.00 | 24 | 1026.0 |
| 20260902204539 | 24 | 245 | 8.0 | 17.7 | 0.00 | 0.00 | 0.00 | 24 | 1026.1 |
| 20260902203538 | 24 | 244 | 8.0 | 14.5 | 0.00 | 0.00 | 0.00 | 24 | 1026.2 |
| 20260902202519 | 23 | 177 | 8.0 | 16.1 | 0.00 | 0.00 | 0.00 | 24 | 1026.3 |
| 20260902201519 | 23 | 250 | 9.7 | 17.7 | 0.00 | 0.00 | 0.00 | 25 | 1026.4 |
| 20260902200519 | 23 | 198 | 9.7 | 14.5 | 0.00 | 0.00 | 0.00 | 25 | 1026.5 |
| 20260902195519 | 24 | 135 | 6.4 | 14.5 | 0.00 | 0.00 | 0.00 | 25 | 1026.7 |
| 20260902194519 | 23 | 173 | 4.8 | 12.9 | 0.00 | 0.00 | 0.00 | 26 | 1026.8 |
| 20260902193516 | 23 | 195 | 11.3 | 27.4 | 0.00 | 0.00 | 0.00 | 25 | 1026.9 |
| 20260902192516 | 23 | 178 | 8.0 | 19.3 | 0.00 | 0.00 | 0.00 | 26 | 1027.0 |
| 20260902191520 | 22 | 194 | 11.3 | 19.3 | 0.00 | 0.00 | 0.00 | 26 | 1027.0 |
| 20260902190520 | 22 | 221 | 8.0 | 12.9 | 0.00 | 0.00 | 0.00 | 26 | 1027.1 |
| 20260902185520 | 22 | 14 | 9.7 | 17.7 | 0.00 | 0.00 | 0.00 | 26 | 1027.4 |
| 20260902184520 | 22 | 19 | 6.4 | 16.1 | 0.00 | 0.00 | 0.00 | 27 | 1027.5 |
| 20260902183521 | 22 | 293 | 8.0 | 16.1 | 0.00 | 0.00 | 0.00 | 27 | 1027.7 |
| 20260902182518 | 22 | 334 | 11.3 | 19.3 | 0.00 | 0.00 | 0.00 | 26 | 1027.8 |
| 20260902181518 | 22 | 316 | 11.3 | 19.3 | 0.00 | 0.00 | 0.00 | 26 | 1027.9 |
| 20260902180518 | 22 | 308 | 9.7 | 22.5 | 0.00 | 0.00 | 0.00 | 25 | 1028.0 |
| 20260902175519 | 22 | 290 | 8.0 | 16.1 | 0.00 | 0.00 | 0.00 | 27 | 1028.0 |
| 20260902174519 | 22 | 306 | 11.3 | 17.7 | 0.00 | 0.00 | 0.00 | 26 | 1028.1 |
| 20260902173519 | 22 | 289 | 14.5 | 30.6 | 0.00 | 0.00 | 0.00 | 27 | 1028.1 |
| 20260902172519 | 21 | 302 | 6.4 | 19.3 | 0.00 | 0.00 | 0.00 | 27 | 1028.3 |
| 20260902171539 | 21 | 290 | 11.3 | 19.3 | 0.00 | 0.00 | 0.00 | 28 | 1028.3 |
| 20260902170519 | 21 | 288 | 12.9 | 22.5 | 0.00 | 0.00 | 0.00 | 28 | 1028.3 |
| 20260902165539 | 21 | 252 | 12.9 | 22.5 | 0.00 | 0.00 | 0.00 | 29 | 1028.4 |
| 20260902164517 | 21 | 291 | 12.9 | 20.9 | 0.00 | 0.00 | 0.00 | 30 | 1028.4 |
| 20260902163540 | 20 | 348 | 3.2 | 6.4 | 0.00 | 0.00 | 0.00 | 33 | 1028.4 |
| 20260902162523 | 20 | 16 | 6.4 | 12.9 | 0.00 | 0.00 | 0.00 | 33 | 1028.3 |
| 20260902161523 | 20 | 316 | 9.7 | 14.5 | 0.00 | 0.00 | 0.00 | 34 | 1028.3 |
| 20260902160517 | 20 | 279 | 9.7 | 16.1 | 0.00 | 0.00 | 0.00 | 34 | 1028.4 |
| 20260902155538 | 20 | 300 | 6.4 | 12.9 | 0.00 | 0.00 | 0.00 | 35 | 1028.4 |
| 20260902154537 | 20 | 259 | 12.9 | 19.3 | 0.00 | 0.00 | 0.00 | 35 | 1028.5 |
| 20260902153518 | 20 | 270 | 6.4 | 20.9 | 0.00 | 0.00 | 0.00 | 36 | 1028.6 |
| 20260902152521 | 20 | 263 | 3.2 | 4.8 | 0.00 | 0.00 | 0.00 | 36 | 1028.5 |
| 20260902151601 | 20 | 194 | 1.6 | 3.2 | 0.00 | 0.00 | 0.00 | 36 | 1028.6 |
| 20260902150521 | 19 | 190 | 3.2 | 4.8 | 0.00 | 0.00 | 0.00 | 37 | 1028.6 |
| 20260902145521 | 18 | 208 | 3.2 | 4.8 | 0.00 | 0.00 | 0.00 | 38 | 1028.7 |
| 20260902144522 | 18 | 175 | 4.8 | 6.4 | 0.00 | 0.00 | 0.00 | 40 | 1028.7 |
| 20260902143522 | 17 | 151 | 4.8 | 8.0 | 0.00 | 0.00 | 0.00 | 42 | 1028.8 |
| 20260902142519 | 17 | 142 | 6.4 | 9.7 | 0.00 | 0.00 | 0.00 | 44 | 1028.7 |
| 20260902141519 | 16 | 164 | 8.0 | 11.3 | 0.00 | 0.00 | 0.00 | 48 | 1028.7 |
| 20260902140520 | 15 | 145 | 9.7 | 12.9 | 0.00 | 0.00 | 0.00 | 51 | 1028.7 |
| 20260902135519 | 14 | 155 | 8.0 | 11.3 | 0.00 | 0.00 | 0.00 | 54 | 1028.7 |
| 20260902134540 | 13 | 147 | 8.0 | 11.3 | 0.00 | 0.00 | 0.00 | 56 | 1028.7 |
| 20260902133540 | 12 | 131 | 8.0 | 9.7 | 0.00 | 0.00 | 0.00 | 60 | 1028.7 |
| 20260902132520 | 11 | 155 | 11.3 | 14.5 | 0.00 | 0.00 | 0.00 | 63 | 1028.5 |
| 20260902131521 | 10 | 169 | 11.3 | 14.5 | 0.00 | 0.00 | 0.00 | 66 | 1028.5 |
| 20260902130521 | 10 | 155 | 8.0 | 14.5 | 0.00 | 0.00 | 0.00 | 66 | 1028.4 |
| 20260902125521 | 10 | 164 | 12.9 | 16.1 | 0.00 | 0.00 | 0.00 | 66 | 1028.2 |
| 20260902124521 | 8 | 150 | 11.3 | 14.5 | 0.00 | 0.00 | 0.00 | 69 | 1028.2 |
| 20260902123521 | 8 | 149 | 9.7 | 12.9 | 0.00 | 0.00 | 0.00 | 75 | 1028.3 |
| 20260902122542 | 8 | 159 | 6.4 | 9.7 | 0.00 | 0.00 | 0.00 | 75 | 1028.2 |
| 20260902121522 | 8 | 175 | 6.4 | 8.0 | 0.00 | 0.00 | 0.00 | 75 | 1028.2 |
| 20260902120521 | 8 | 149 | 8.0 | 9.7 | 0.00 | 0.00 | 0.00 | 73 | 1028.1 |
| 20260902115525 | 8 | 241 | 1.6 | 8.0 | 0.00 | 0.00 | 0.00 | 74 | 1028.0 |
| 20260902114605 | 8 | 30 | 1.6 | 6.4 | 0.00 | 0.00 | 0.00 | 74 | 1028.1 |
| 20260902113522 | 8 | 184 | 6.4 | 12.9 | 0.00 | 0.00 | 0.00 | 74 | 1027.9 |
| 20260902112516 | 8 | 175 | 6.4 | 9.7 | 0.00 | 0.00 | 0.00 | 74 | 1027.9 |
| 20260902111516 | 8 | 87 | 4.8 | 9.7 | 0.00 | 0.00 | 0.00 | 74 | 1027.8 |
| 20260902110525 | 10 | 60 | 6.4 | 8.0 | 0.00 | 0.00 | 0.00 | 73 | 1027.8 |
| 20260902105523 | 10 | 171 | 9.7 | 12.9 | 0.00 | 0.00 | 0.00 | 69 | 1027.7 |
| 20260902104517 | 10 | 144 | 8.0 | 9.7 | 0.00 | 0.00 | 0.00 | 69 | 1027.8 |
| 20260902103517 | 10 | 138 | 8.0 | 9.7 | 0.00 | 0.00 | 0.00 | 67 | 1027.7 |
| 20260902102518 | 10 | 141 | 9.7 | 11.3 | 0.00 | 0.00 | 0.00 | 70 | 1027.8 |
| 20260902101518 | 10 | 141 | 9.7 | 12.9 | 0.00 | 0.00 | 0.00 | 69 | 1027.8 |
| 20260902100547 | 10 | 139 | 6.4 | 8.0 | 0.00 | 0.00 | 0.00 | 72 | 1027.9 |
| 20260902095538 | 10 | 140 | 9.7 | 12.9 | 0.00 | 0.00 | 0.00 | 74 | 1027.9 |
| 20260902094538 | 11 | 135 | 8.0 | 9.7 | 0.00 | 0.00 | 0.00 | 73 | 1027.9 |
| 20260902093548 | 11 | 120 | 4.8 | 8.0 | 0.00 | 0.00 | 0.00 | 71 | 1027.9 |
| 20260902092527 | 11 | 91 | 4.8 | 6.4 | 0.00 | 0.00 | 0.00 | 72 | 1027.9 |
| 20260902091519 | 11 | 107 | 4.8 | 9.7 | 0.00 | 0.00 | 0.00 | 72 | 1027.9 |
| 20260902090519 | 12 | 71 | 6.4 | 9.7 | 0.00 | 0.00 | 0.00 | 71 | 1027.9 |
| 20260902085519 | 12 | 257 | 4.8 | 8.0 | 0.00 | 0.00 | 0.00 | 72 | 1027.8 |
| 20260902084519 | 12 | 209 | 9.7 | 14.5 | 0.00 | 0.00 | 0.00 | 72 | 1027.8 |
| 20260902083519 | 12 | 186 | 12.9 | 16.1 | 0.00 | 0.00 | 0.00 | 71 | 1027.8 |
| 20260902082519 | 12 | 156 | 9.7 | 14.5 | 0.00 | 0.00 | 0.00 | 71 | 1027.8 |
| 20260902081519 | 12 | 158 | 11.3 | 16.1 | 0.00 | 0.00 | 0.00 | 71 | 1028.0 |
| 20260902080529 | 11 | 174 | 3.2 | 6.4 | 0.00 | 0.00 | 0.00 | 74 | 1028.1 |
| 20260902075520 | 11 | 162 | 9.7 | 12.9 | 0.00 | 0.00 | 0.00 | 73 | 1027.9 |
| 20260902074520 | 12 | 158 | 6.4 | 8.0 | 0.00 | 0.00 | 0.00 | 72 | 1028.0 |
| 20260902073600 | 12 | 153 | 9.7 | 11.3 | 0.00 | 0.00 | 0.00 | 70 | 1028.0 |
| 20260902072540 | 12 | 165 | 9.7 | 12.9 | 0.00 | 0.00 | 0.00 | 69 | 1027.9 |
| 20260902071521 | 13 | 162 | 8.0 | 12.9 | 0.00 | 0.00 | 0.00 | 67 | 1028.0 |
| 20260902070541 | 13 | 178 | 11.3 | 16.1 | 0.00 | 0.00 | 0.00 | 65 | 1027.9 |
| 20260902065538 | 13 | 175 | 11.3 | 16.1 | 0.00 | 0.00 | 0.00 | 65 | 1028.0 |
| 20260902064521 | 13 | 167 | 11.3 | 16.1 | 0.00 | 0.00 | 0.00 | 67 | 1027.9 |
| 20260902063521 | 14 | 183 | 8.0 | 12.9 | 0.00 | 0.00 | 0.00 | 63 | 1027.9 |
| 20260902062522 | 13 | 226 | 8.0 | 11.3 | 0.00 | 0.00 | 0.00 | 62 | 1027.9 |
| 20260902061542 | 13 | 227 | 8.0 | 11.3 | 0.00 | 0.00 | 0.00 | 64 | 1027.9 |
| 20260902060522 | 12 | 190 | 9.7 | 12.9 | 0.00 | 0.00 | 0.00 | 69 | 1027.8 |
| 20260902055516 | 12 | 222 | 8.0 | 11.3 | 0.00 | 0.00 | 0.00 | 65 | 1027.9 |
| 20260902054516 | 11 | 176 | 8.0 | 11.3 | 0.00 | 0.00 | 0.00 | 73 | 1027.9 |
| 20260902053531 | 11 | 151 | 6.4 | 8.0 | 0.00 | 0.00 | 0.00 | 74 | 1027.9 |
| 20260902052523 | 11 | 138 | 6.4 | 9.7 | 0.00 | 0.00 | 0.00 | 73 | 1027.9 |
| 20260902051537 | 11 | 143 | 6.4 | 9.7 | 0.00 | 0.00 | 0.00 | 73 | 1028.0 |
| 20260902050517 | 12 | 106 | 4.8 | 6.4 | 0.00 | 0.00 | 0.00 | 68 | 1028.0 |
| 20260902045552 | 12 | 79 | 6.4 | 8.0 | 0.00 | 0.00 | 0.00 | 69 | 1028.1 |
| 20260902044532 | 13 | 146 | 4.8 | 6.4 | 0.00 | 0.00 | 0.00 | 68 | 1028.1 |
| 20260902043518 | 13 | 141 | 9.7 | 12.9 | 0.00 | 0.00 | 0.00 | 67 | 1028.1 |
| 20260902042516 | 14 | 129 | 4.8 | 6.4 | 0.00 | 0.00 | 0.00 | 64 | 1028.2 |
| 20260902041518 | 15 | 77 | 6.4 | 11.3 | 0.00 | 0.00 | 0.00 | 60 | 1028.2 |
| 20260902040518 | 15 | 87 | 6.4 | 11.3 | 0.00 | 0.00 | 0.00 | 61 | 1028.2 |
| 20260902035518 | 15 | 63 | 8.0 | 12.9 | 0.00 | 0.00 | 0.00 | 60 | 1028.1 |
| 20260902034519 | 15 | 61 | 8.0 | 12.9 | 0.00 | 0.00 | 0.00 | 56 | 1028.0 |
| 20260902033517 | 15 | 89 | 4.8 | 11.3 | 0.00 | 0.00 | 0.00 | 55 | 1027.9 |
| 20260902032537 | 15 | 66 | 8.0 | 11.3 | 0.00 | 0.00 | 0.00 | 56 | 1027.7 |
| 20260902031517 | 14 | 81 | 8.0 | 9.7 | 0.00 | 0.00 | 0.00 | 59 | 1027.9 |
| 20260902030518 | 14 | 92 | 3.2 | 6.4 | 0.00 | 0.00 | 0.00 | 61 | 1027.7 |
| 20260902025517 | 15 | 76 | 6.4 | 8.0 | 0.00 | 0.00 | 0.00 | 58 | 1027.5 |
| 20260902024518 | 16 | 83 | 4.8 | 6.4 | 0.00 | 0.00 | 0.00 | 55 | 1027.4 |
| 20260902023518 | 16 | 78 | 8.0 | 9.7 | 0.00 | 0.00 | 0.00 | 55 | 1027.3 |
| 20260902022518 | 16 | 46 | 4.8 | 6.4 | 0.00 | 0.00 | 0.00 | 53 | 1027.3 |
| 20260902021518 | 17 | 12 | 3.2 | 4.8 | 0.00 | 0.00 | 0.00 | 51 | 1027.2 |
| 20260902020518 | 17 | 344 | 3.2 | 4.8 | 0.00 | 0.00 | 0.00 | 50 | 1027.1 |
| 20260902015519 | 18 | 18 | 4.8 | 9.7 | 0.00 | 0.00 | 0.00 | 50 | 1027.0 |
| 20260902014518 | 18 | 30 | 11.3 | 19.3 | 0.00 | 0.00 | 0.00 | 48 | 1026.8 |
| 20260902013519 | 18 | 39 | 9.7 | 14.5 | 0.00 | 0.00 | 0.00 | 44 | 1026.7 |
| 20260902012520 | 18 | 6 | 3.2 | 6.4 | 0.00 | 0.00 | 0.00 | 47 | 1026.5 |
| 20260902011519 | 18 | 271 | 4.8 | 8.0 | 0.00 | 0.05 | 0.00 | 47 | 1026.4 |
| 20260902010519 | 19 | 243 | 6.4 | 11.3 | 0.00 | 0.05 | 0.00 | 45 | 1026.2 |
| 20260902005520 | 20 | 247 | 4.8 | 9.7 | 0.00 | 0.05 | 0.00 | 42 | 1026.3 |
| 20260902004520 | 20 | 252 | 8.0 | 11.3 | 0.00 | 0.05 | 0.00 | 40 | 1026.2 |
| 20260902003516 | 21 | 262 | 9.7 | 12.9 | 0.00 | 0.05 | 0.00 | 39 | 1026.2 |
| 20260902002539 | 22 | 264 | 11.3 | 16.1 | 0.00 | 0.05 | 0.00 | 38 | 1026.1 |
| 20260902001520 | 22 | 289 | 9.7 | 12.9 | 0.00 | 0.05 | 0.00 | 35 | 1026.1 |
| 20260902000541 | 21 | 284 | 9.7 | 14.5 | 0.00 | 0.05 | 0.00 | 38 | 1026.1 |
| 20260901235521 | 22 | 298 | 8.0 | 12.9 | 0.00 | 0.05 | 0.00 | 34 | 1026.0 |
| 20260901234517 | 23 | 305 | 9.7 | 14.5 | 0.00 | 0.05 | 0.00 | 31 | 1025.9 |
| 20260901233537 | 23 | 337 | 9.7 | 16.1 | 0.00 | 0.05 | 0.00 | 30 | 1025.8 |
| 20260901232517 | 23 | 61 | 8.0 | 14.5 | 0.00 | 0.05 | 0.00 | 33 | 1025.8 |
| 20260901231528 | 23 | 194 | 9.7 | 14.5 | 0.00 | 0.05 | 0.00 | 32 | 1026.0 |
| 20260901230518 | 23 | 246 | 8.0 | 12.9 | 0.00 | 0.05 | 0.00 | 30 | 1026.0 |
| 20260901225517 | 23 | 229 | 8.0 | 14.5 | 0.00 | 0.05 | 0.00 | 31 | 1026.0 |
| 20260901224518 | 23 | 214 | 9.7 | 17.7 | 0.00 | 0.05 | 0.00 | 31 | 1026.1 |
| 20260901223558 | 23 | 201 | 11.3 | 17.7 | 0.00 | 0.05 | 0.00 | 31 | 1026.2 |
| 20260901222518 | 23 | 227 | 9.7 | 17.7 | 0.00 | 0.05 | 0.00 | 30 | 1026.3 |
| 20260901221619 | 22 | 227 | 11.3 | 17.7 | 0.00 | 0.05 | 0.00 | 32 | 1026.5 |